[keps] orb07193.amsat
Ray Hoad
r.hoad at att.net
Thu Jul 12 20:27:50 PDT 2007
SB KEPS @ AMSAT $ORB07193.O
Orbital Elements 07193.OSCAR
HR AMSAT ORBITAL ELEMENTS FOR OSCAR SATELLITES
FROM WA5QGD FORT WORTH,TX July 12, 2007
Send SUBSCRIBE KEPS/UNSUBSCRIBE KEPS to majordomo at amsat.org only
BID: ORB07193.O
TO ALL RADIO AMATEURS BT
Satellite: AO-07
Catalog number: 07530
Epoch time: 07192.64208338
Element set: 0925
Inclination: 101.5122 deg
RA of node: 229.9294 deg
Eccentricity: 0.0011664
Arg of perigee: 207.4990 deg
Mean anomaly: 152.5462 deg
Mean motion: 12.53572457 rev/day
Decay rate: -2.8e-07 rev/day^2
Epoch rev: 49418
Checksum: 303
Satellite: AO-10
Catalog number: 14129
Epoch time: 07192.34214358
Element set: 0399
Inclination: 026.3670 deg
RA of node: 267.5095 deg
Eccentricity: 0.6065144
Arg of perigee: 037.9383 deg
Mean anomaly: 352.1297 deg
Mean motion: 02.05867411 rev/day
Decay rate: 3.5e-07 rev/day^2
Epoch rev: 18106
Checksum: 303
Satellite: UO-11
Catalog number: 14781
Epoch time: 07193.41604922
Element set: 418
Inclination: 098.1885 deg
RA of node: 216.6015 deg
Eccentricity: 0.0010256
Arg of perigee: 090.4281 deg
Mean anomaly: 269.8110 deg
Mean motion: 14.79564082 rev/day
Decay rate: -1.74e-06 rev/day^2
Epoch rev: 25346
Checksum: 298
Satellite: RS-15
Catalog number: 23439
Epoch time: 07192.81649055
Element set: 0086
Inclination: 064.8187 deg
RA of node: 327.0871 deg
Eccentricity: 0.0158585
Arg of perigee: 186.2903 deg
Mean anomaly: 173.6030 deg
Mean motion: 11.27551833 rev/day
Decay rate: -3.9e-07 rev/day^2
Epoch rev: 51647
Checksum: 324
Satellite: FO-29
Catalog number: 24278
Epoch time: 07192.90430013
Element set: 0556
Inclination: 098.5521 deg
RA of node: 149.2320 deg
Eccentricity: 0.0351401
Arg of perigee: 019.3696 deg
Mean anomaly: 342.0419 deg
Mean motion: 13.52931405 rev/day
Decay rate: 2.4e-07 rev/day^2
Epoch rev: 53824
Checksum: 283
Satellite: SO-33
Catalog number: 25509
Epoch time: 07193.70793955
Element set: 970
Inclination: 031.4315 deg
RA of node: 081.4533 deg
Eccentricity: 0.0355843
Arg of perigee: 290.3877 deg
Mean anomaly: 065.8863 deg
Mean motion: 14.28166415 rev/day
Decay rate: -1.25e-06 rev/day^2
Epoch rev: 45490
Checksum: 328
Satellite: AO-40
Catalog number: 26609
Epoch time: 07193.02064858
Element set: 903
Inclination: 005.8914 deg
RA of node: 133.5775 deg
Eccentricity: 0.7980008
Arg of perigee: 339.8921 deg
Mean anomaly: 001.2035 deg
Mean motion: 01.25586885 rev/day
Decay rate: -3.53e-06 rev/day^2
Epoch rev: 3075
Checksum: 313
Satellite: VO-52
Catalog number: 28650
Epoch time: 07192.96685141
Element set: 0675
Inclination: 097.8313 deg
RA of node: 263.1298 deg
Eccentricity: 0.0027560
Arg of perigee: 170.4134 deg
Mean anomaly: 189.7631 deg
Mean motion: 14.81335640 rev/day
Decay rate: 2.79e-06 rev/day^2
Epoch rev: 11808
Checksum: 323
Satellite: PO-63
Catalog number: 29712
Epoch time: 07193.67021885
Element set: 537
Inclination: 097.9202 deg
RA of node: 252.4752 deg
Eccentricity: 0.0015496
Arg of perigee: 050.4766 deg
Mean anomaly: 309.7818 deg
Mean motion: 14.79756607 rev/day
Decay rate: 5.21e-06 rev/day^2
Epoch rev: 2710
Checksum: 327
/EX
SB KEPS @ AMSAT $ORB07193.D
Orbital Elements 07193.MICROS
HR AMSAT ORBITAL ELEMENTS FOR THE MICROSATS
FROM WA5QGD FORT WORTH,TX July 12, 2007
Send SUBSCRIBE KEPS/UNSUBSCRIBE KEPS to majordomo at amsat.org only
BID: ORB07193.D
TO ALL RADIO AMATEURS BT
Satellite: AO-16
Catalog number: 20439
Epoch time: 07192.96945347
Element set: 0079
Inclination: 098.1957 deg
RA of node: 186.1591 deg
Eccentricity: 0.0011708
Arg of perigee: 109.3996 deg
Mean anomaly: 250.8450 deg
Mean motion: 14.31764687 rev/day
Decay rate: -1.0e-08 rev/day^2
Epoch rev: 91209
Checksum: 337
Satellite: LO-19
Catalog number: 20442
Epoch time: 07192.51465494
Element set: 5
Inclination: 098.1803 deg
RA of node: 195.0475 deg
Eccentricity: 0.0012843
Arg of perigee: 110.7241 deg
Mean anomaly: 249.5334 deg
Mean motion: 14.32005447 rev/day
Decay rate: 7.3e-07 rev/day^2
Epoch rev: 91217
Checksum: 279
Satellite: AO-27
Catalog number: 22825
Epoch time: 07193.47128146
Element set: 728
Inclination: 098.3310 deg
RA of node: 162.2510 deg
Eccentricity: 0.0008353
Arg of perigee: 180.9133 deg
Mean anomaly: 179.2019 deg
Mean motion: 14.29212986 rev/day
Decay rate: 3.8e-07 rev/day^2
Epoch rev: 71910
Checksum: 296
Satellite: IO-26
Catalog number: 22826
Epoch time: 07192.88428267
Element set: 425
Inclination: 098.3246 deg
RA of node: 162.7503 deg
Eccentricity: 0.0008490
Arg of perigee: 180.3191 deg
Mean anomaly: 179.7980 deg
Mean motion: 14.29459232 rev/day
Decay rate: 6.0e-08 rev/day^2
Epoch rev: 71910
Checksum: 321
Satellite: PO-28
Catalog number: 22829
Epoch time: 07192.47840179
Element set: 0704
Inclination: 098.3129 deg
RA of node: 163.5248 deg
Eccentricity: 0.0009836
Arg of perigee: 155.2650 deg
Mean anomaly: 204.8997 deg
Mean motion: 14.30159830 rev/day
Decay rate: -2.1e-07 rev/day^2
Epoch rev: 71928
Checksum: 329
Satellite: GO-32
Catalog number: 25397
Epoch time: 07192.90851142
Element set: 0348
Inclination: 098.4126 deg
RA of node: 239.0381 deg
Eccentricity: 0.0001786
Arg of perigee: 126.1938 deg
Mean anomaly: 233.9397 deg
Mean motion: 14.23126870 rev/day
Decay rate: -2.10e-06 rev/day^2
Epoch rev: 46767
Checksum: 317
Satellite: MO-46
Catalog number: 26548
Epoch time: 07193.19960357
Element set: 842
Inclination: 064.5559 deg
RA of node: 105.2857 deg
Eccentricity: 0.0012368
Arg of perigee: 194.2025 deg
Mean anomaly: 165.8752 deg
Mean motion: 14.83157812 rev/day
Decay rate: -3.8e-07 rev/day^2
Epoch rev: 36724
Checksum: 333
Satellite: NO-44
Catalog number: 26931
Epoch time: 07193.20614345
Element set: 632
Inclination: 067.0514 deg
RA of node: 083.0420 deg
Eccentricity: 0.0007602
Arg of perigee: 263.9001 deg
Mean anomaly: 096.1242 deg
Mean motion: 14.29489471 rev/day
Decay rate: -1.7e-07 rev/day^2
Epoch rev: 30167
Checksum: 271
Satellite: SO-50
Catalog number: 27607
Epoch time: 07193.47686558
Element set: 356
Inclination: 064.5594 deg
RA of node: 008.2514 deg
Eccentricity: 0.0057150
Arg of perigee: 353.0719 deg
Mean anomaly: 006.9615 deg
Mean motion: 14.71272135 rev/day
Decay rate: -1.6e-07 rev/day^2
Epoch rev: 24484
Checksum: 310
Satellite: CO-55
Catalog number: 27844
Epoch time: 07192.68671045
Element set: 0072
Inclination: 098.7174 deg
RA of node: 200.6512 deg
Eccentricity: 0.0010729
Arg of perigee: 026.0190 deg
Mean anomaly: 334.1527 deg
Mean motion: 14.20520799 rev/day
Decay rate: 4.3e-07 rev/day^2
Epoch rev: 20895
Checksum: 295
Satellite: CO-57
Catalog number: 27848
Epoch time: 07192.56952650
Element set: 30
Inclination: 098.7166 deg
RA of node: 199.7222 deg
Eccentricity: 0.0010649
Arg of perigee: 028.2976 deg
Mean anomaly: 331.8784 deg
Mean motion: 14.20338546 rev/day
Decay rate: 8.0e-08 rev/day^2
Epoch rev: 20891
Checksum: 334
Satellite: AO-51
Catalog number: 28375
Epoch time: 07192.60065057
Element set: 0860
Inclination: 098.1106 deg
RA of node: 230.6595 deg
Eccentricity: 0.0084713
Arg of perigee: 107.9208 deg
Mean anomaly: 253.1240 deg
Mean motion: 14.40573800 rev/day
Decay rate: 1.1e-07 rev/day^2
Epoch rev: 15923
Checksum: 280
Satellite: CO-56
Catalog number: 28941
Epoch time: 07193.66113309
Element set: 494
Inclination: 098.1283 deg
RA of node: 257.6070 deg
Eccentricity: 0.0223592
Arg of perigee: 182.3966 deg
Mean anomaly: 177.6489 deg
Mean motion: 15.40587680 rev/day
Decay rate: 1.8479e-04 rev/day^2
Epoch rev: 7735
Checksum: 362
Satellite: HO-59
Catalog number: 29484
Epoch time: 07193.64148292
Element set: 493
Inclination: 098.2830 deg
RA of node: 247.3057 deg
Eccentricity: 0.0202774
Arg of perigee: 174.3918 deg
Mean anomaly: 185.9697 deg
Mean motion: 15.52639483 rev/day
Decay rate: 4.8835e-04 rev/day^2
Epoch rev: 4502
Checksum: 364
Satellite: NO-60
Catalog number: 29661
Epoch time: 07150.05824307
Element set: 300
Inclination: 051.6186 deg
RA of node: 176.5045 deg
Eccentricity: 0.0007204
Arg of perigee: 190.7749 deg
Mean anomaly: 188.7342 deg
Mean motion: 16.52052832 rev/day
Decay rate: 1.3324117e-01 rev/day^2
Epoch rev: 2554
Checksum: 290
Satellite: NO-61
Catalog number: 29664
Epoch time: 07193.52801386
Element set: 289
Inclination: 051.6319 deg
RA of node: 318.6898 deg
Eccentricity: 0.0011919
Arg of perigee: 078.5139 deg
Mean anomaly: 281.7256 deg
Mean motion: 15.93268825 rev/day
Decay rate: 4.0926e-04 rev/day^2
Epoch rev: 3219
Checksum: 352
Satellite: CP4
Catalog number: 31122
Epoch time: 07193.63271242
Element set: 80
Inclination: 098.0886 deg
RA of node: 266.0900 deg
Eccentricity: 0.0084667
Arg of perigee: 307.0578 deg
Mean anomaly: 052.3395 deg
Mean motion: 14.55015628 rev/day
Decay rate: 3.43e-06 rev/day^2
Epoch rev: 1265
Checksum: 288
Satellite: CP3
Catalog number: 31128
Epoch time: 07192.71820272
Element set: 0076
Inclination: 098.0827 deg
RA of node: 264.7779 deg
Eccentricity: 0.0102264
Arg of perigee: 310.7633 deg
Mean anomaly: 048.4721 deg
Mean motion: 14.51846033 rev/day
Decay rate: -4.9e-07 rev/day^2
Epoch rev: 01238
Checksum: 292
Satellite: LIBERT
Catalog number: 31129
Epoch time: 07193.67795432
Element set: 215
Inclination: 098.0809 deg
RA of node: 265.7069 deg
Eccentricity: 0.0101862
Arg of perigee: 307.7962 deg
Mean anomaly: 051.3995 deg
Mean motion: 14.51938929 rev/day
Decay rate: 3.83e-06 rev/day^2
Epoch rev: 1250
Checksum: 322
/EX
SB KEPS @ AMSAT $ORB07193.W
Orbital Elements 07193.WEATHER
HR AMSAT ORBITAL ELEMENTS FOR WEATHER SATELLITES
FROM WA5QGD FORT WORTH,TX July 12, 2007
Send SUBSCRIBE KEPS/UNSUBSCRIBE KEPS to majordomo at amsat.org only
BID: ORB07193.W
TO ALL RADIO AMATEURS BT
Satellite: NOAA-10
Catalog number: 16969
Epoch time: 07193.18887739
Element set: 725
Inclination: 098.7443 deg
RA of node: 210.3845 deg
Eccentricity: 0.0013352
Arg of perigee: 094.4366 deg
Mean anomaly: 265.8346 deg
Mean motion: 14.27329060 rev/day
Decay rate: 1.0e-08 rev/day^2
Epoch rev: 8279
Checksum: 328
